Location: Bégole
(43.1574°N, 0.3291°E)
Time: 06:43:47
(UTC+00:00)

Lacrosse 5 - Pass Details

Date: 28 January 2023
Orbit: 714 x 724 km, 57.0° (Epoch: 09 March)

Event Time Altitude Azimuth Distance (km) Brightness Sun altitude
Rises 20:17:22 0° 235° (SW) 3,125 5.7 -35.0°
Reaches altitude 10° 20:19:46 10° 238° (WSW) 2,208 4.9 -35.5°
Enters shadow 20:21:35 22° 244° (WSW) 1,545 4.0 -35.8°
